EW3770 Weather Reports


time (UTC)temp
F
wind
direction
speed
knots
gust
knots
rain 1hr
in
rain 24hr
in
rain mn
in
humidity
%
barometer
mb
20211208125004 36 184 4.3 8.7 0.00 0.00 0.00 73 1015.4
20211208124004 36 180 3.5 9.6 0.00 0.00 0.00 73 1015.4
20211208123004 36 178 2.6 7.0 0.00 0.00 0.00 72 1015.5
20211208122004 36 173 2.6 7.0 0.00 0.00 0.00 71 1015.5
20211208121004 36 185 2.6 5.2 0.00 0.00 0.00 71 1015.7
20211208120004 36 181 3.5 7.0 0.00 0.00 0.00 71 1015.9
20211208115004 37 185 2.6 4.3 0.00 0.00 0.00 70 1016.0
20211208114004 37 172 2.6 6.1 0.00 0.00 0.00 69 1016.2
20211208113004 37 172 3.5 6.1 0.00 0.00 0.00 70 1016.3
20211208112004 36 178 2.6 4.3 0.00 0.00 0.00 71 1016.4
20211208111005 36 179 1.7 5.2 0.00 0.00 0.00 71 1016.5
20211208110004 36 179 1.7 6.1 0.00 0.00 0.00 72 1016.6
20211208105003 35 186 2.6 6.1 0.00 0.00 0.00 73 1016.6
20211208104003 35 200 2.6 4.3 0.00 0.00 0.00 72 1016.7
20211208103003 35 209 1.7 3.5 0.00 0.00 0.00 72 1017.1
20211208102004 36 207 1.7 4.3 0.00 0.00 0.00 71 1017.1
20211208101004 36 201 1.7 3.5 0.00 0.00 0.00 71 1017.2
20211208100003 36 189 2.6 4.3 0.00 0.00 0.00 71 1017.2
20211208095004 36 182 1.7 4.3 0.00 0.00 0.00 71 1017.4
20211208094004 36 164 2.6 4.3 0.00 0.00 0.00 73 1017.4
20211208093003 36 151 1.7 3.5 0.00 0.00 0.00 75 1017.7
20211208092003 35 168 1.7 4.3 0.00 0.00 0.00 76 1017.8
20211208091004 35 154 0.9 2.6 0.00 0.00 0.00 76 1017.8
20211208090004 35 154 0.9 4.3 0.00 0.00 0.00 76 1017.9
20211208085004 35 153 1.7 2.6 0.00 0.00 0.00 76 1017.9
20211208084004 35 153 1.7 2.6 0.00 0.00 0.00 76 1018.1
20211208083004 35 153 1.7 2.6 0.00 0.00 0.00 76 1018.1
20211208082004 34 154 1.7 4.3 0.00 0.00 0.00 77 1018.1
20211208081004 34 155 0.9 2.6 0.00 0.00 0.00 75 1018.1
20211208080004 34 155 0.9 1.7 0.00 0.00 0.00 74 1018.2
20211208075004 34 0 0.0 0.0 0.00 0.00 0.00 72 1018.4
20211208074003 35 0 0.0 0.0 0.00 0.00 0.00 72 1018.5
20211208073004 35 188 1.7 4.3 0.00 0.00 0.00 73 1018.5
20211208072004 35 209 3.5 6.1 0.00 0.00 0.00 73 1018.5
20211208071004 35 213 2.6 5.2 0.00 0.00 0.00 74 1018.6
20211208070004 34 226 1.7 5.2 0.00 0.00 0.00 75 1018.7
20211208065004 33 230 1.7 2.6 0.00 0.00 0.00 76 1018.8
20211208064004 33 230 0.0 2.6 0.00 0.00 0.00 74 1018.9
20211208063003 33 0 0.0 0.0 0.00 0.00 0.00 75 1018.9
20211208062004 33 230 0.0 0.9 0.00 0.00 0.00 75 1019.1
20211208061004 32 232 2.6 6.1 0.00 0.00 0.00 74 1019.1
20211208060004 32 277 2.6 5.2 0.00 0.00 0.00 73 1019.2
20211208055003 32 294 2.6 4.3 0.00 0.00 0.00 73 1019.3
20211208054003 33 300 2.6 3.5 0.00 0.00 0.00 72 1019.3
20211208053004 33 300 1.7 2.6 0.00 0.00 0.00 71 1019.3
20211208052004 34 300 1.7 3.5 0.00 0.00 0.00 71 1019.1
20211208051003 33 301 1.7 2.6 0.00 0.00 0.00 73 1019.2
20211208050004 33 301 1.7 2.6 0.00 0.00 0.00 72 1019.3
20211208045004 33 301 1.7 2.6 0.00 0.00 0.00 72 1019.2
20211208044004 33 302 1.7 4.3 0.00 0.00 0.00 72 1019.2
20211208043004 33 313 2.6 4.3 0.00 0.00 0.00 73 1019.1
20211208042003 33 317 1.7 4.3 0.00 0.00 0.00 72 1019.4
20211208041004 34 0 0.0 0.0 0.00 0.00 0.00 71 1019.5
20211208040004 34 319 0.0 0.9 0.00 0.00 0.00 70 1019.5
20211208035004 35 319 0.9 2.6 0.00 0.00 0.00 70 1019.5
20211208034004 35 319 0.0 0.9 0.00 0.00 0.00 69 1019.3
20211208033004 36 319 1.7 4.3 0.00 0.00 0.00 69 1019.3
20211208032004 36 320 1.7 3.5 0.00 0.00 0.00 68 1019.3
20211208031004 36 320 1.7 3.5 0.00 0.00 0.00 68 1019.2
20211208030004 36 320 2.6 3.5 0.00 0.00 0.00 68 1019.2
20211208025004 36 321 2.6 4.3 0.00 0.00 0.00 67 1019.2
20211208024003 37 321 1.7 3.5 0.00 0.00 0.00 67 1019.1
20211208023004 37 321 2.6 4.3 0.00 0.00 0.00 66 1019.1
20211208022004 37 321 2.6 3.5 0.00 0.00 0.00 66 1018.8
20211208021004 37 322 2.6 3.5 0.00 0.00 0.00 65 1018.8
20211208020003 37 322 1.7 2.6 0.00 0.00 0.00 63 1018.8
20211208015003 38 322 0.9 2.6 0.00 0.00 0.00 61 1018.6
20211208014004 38 322 0.0 2.6 0.00 0.00 0.00 61 1018.5
20211208013004 39 322 0.9 2.6 0.00 0.00 0.00 59 1018.4
20211208012004 40 322 1.7 3.5 0.00 0.00 0.00 59 1018.0
20211208011003 40 322 0.9 2.6 0.00 0.00 0.00 57 1018.0
20211208010004 41 322 0.9 1.7 0.00 0.00 0.00 56 1018.1
20211208005004 42 322 0.9 1.7 0.00 0.00 0.00 55 1018.1
20211208004003 42 322 0.9 1.7 0.00 0.00 0.00 54 1018.1
20211208003004 43 322 1.7 4.3 0.00 0.00 0.00 52 1017.9
20211208002004 43 322 1.7 3.5 0.00 0.00 0.00 51 1017.7
20211208001004 44 323 2.6 5.2 0.00 0.00 0.00 50 1017.5
20211208000004 44 325 2.6 5.2 0.00 0.00 0.00 48 1017.4
20211207235004 45 325 3.5 7.0 0.00 0.00 0.00 46 1017.2
20211207234003 46 332 3.5 7.0 0.00 0.00 0.00 46 1017.1
20211207233003 46 335 4.3 8.7 0.00 0.00 0.00 46 1017.3
20211207232004 47 330 4.3 8.7 0.00 0.00 0.00 46 1017.2
20211207231004 47 334 3.5 7.0 0.00 0.00 0.00 46 1016.9
20211207230004 48 332 4.3 7.8 0.00 0.00 0.00 46 1016.7
20211207225004 48 359 5.2 9.6 0.00 0.00 0.00 45 1016.6
20211207224004 49 360 4.3 9.6 0.00 0.00 0.00 43 1016.5
20211207223004 49 360 2.6 5.2 0.00 0.00 0.00 43 1016.4
20211207222004 49 360 3.5 7.0 0.00 0.00 0.00 43 1016.3
20211207221004 49 360 2.6 7.8 0.00 0.00 0.00 43 1016.4
20211207220004 49 360 2.6 4.3 0.00 0.00 0.00 43 1016.5
20211207215004 50 360 2.6 4.3 0.00 0.00 0.00 44 1016.6
20211207214003 50 360 2.6 5.2 0.00 0.00 0.00 44 1016.7
20211207213003 50 360 1.7 4.3 0.00 0.00 0.00 44 1016.7
20211207212004 50 360 3.5 5.2 0.00 0.00 0.00 44 1016.8
20211207211004 50 360 1.7 4.3 0.00 0.00 0.00 42 1016.8
20211207210004 50 360 3.5 7.0 0.00 0.00 0.00 43 1016.9
20211207205004 50 360 0.9 3.5 0.00 0.00 0.00 44 1017.1
20211207204004 50 1 0.9 2.6 0.00 0.00 0.00 44 1017.1
20211207203004 50 360 0.9 2.6 0.00 0.00 0.00 44 1017.3
20211207202004 49 1 1.7 3.5 0.00 0.00 0.00 46 1017.4
20211207201004 49 360 1.7 2.6 0.00 0.00 0.00 48 1017.5
20211207200004 49 360 0.9 2.6 0.00 0.00 0.00 47 1017.7
20211207195004 49 360 0.9 2.6 0.00 0.00 0.00 47 1017.7
20211207194004 49 360 1.7 3.5 0.00 0.00 0.00 47 1017.8
20211207193004 48 360 1.7 3.5 0.00 0.00 0.00 48 1017.9
20211207192004 48 360 1.7 4.3 0.00 0.00 0.00 47 1018.2
20211207191003 49 360 1.7 3.5 0.00 0.00 0.00 47 1018.3
20211207190003 48 360 0.9 4.3 0.00 0.00 0.00 46 1018.3
20211207185004 48 360 1.7 4.3 0.00 0.00 0.00 46 1018.3
20211207184004 48 360 1.7 4.3 0.00 0.00 0.00 46 1018.6
20211207183004 48 360 2.6 5.2 0.00 0.00 0.00 45 1018.6
20211207182004 48 4 1.7 3.5 0.00 0.00 0.00 48 1018.8
20211207181004 48 21 0.9 3.5 0.00 0.00 0.00 47 1018.8
20211207180004 47 51 0.9 2.6 0.00 0.00 0.00 49 1019.0
20211207175004 47 37 0.9 3.5 0.00 0.00 0.00 48 1019.0
20211207174004 47 35 0.9 2.6 0.00 0.00 0.00 50 1019.0
20211207173004 46 72 0.9 2.6 0.00 0.00 0.00 53 1019.1
20211207172004 44 89 0.0 1.7 0.00 0.00 0.00 55 1018.9
20211207171004 43 89 0.9 2.6 0.00 0.00 0.00 57 1018.8
20211207170004 43 90 1.7 3.5 0.00 0.00 0.00 57 1018.8
20211207165003 43 92 1.7 3.5 0.00 0.00 0.00 57 1019.0
20211207164004 43 88 1.7 2.6 0.00 0.00 0.00 58 1018.7
20211207163004 42 81 0.9 2.6 0.00 0.00 0.00 61 1018.6
20211207162004 40 81 0.0 1.7 0.00 0.00 0.00 65 1018.4
20211207161004 38 81 0.9 2.6 0.00 0.00 0.00 70 1018.1
20211207160004 36 81 0.9 2.6 0.00 0.00 0.00 72 1018.0
20211207155003 35 0 0.0 0.0 0.00 0.00 0.00 73 1017.7
20211207154004 34 81 0.0 0.9 0.00 0.00 0.00 72 1017.5
20211207153004 34 81 0.9 1.7 0.00 0.00 0.00 72 1017.6
20211207152004 35 81 0.9 1.7 0.00 0.00 0.00 71 1017.1
20211207151004 35 81 1.7 3.5 0.00 0.00 0.00 71 1016.9
20211207150003 36 81 1.7 3.5 0.00 0.00 0.00 71 1016.7
20211207145004 36 81 0.9 2.6 0.00 0.00 0.00 71 1016.2
20211207144004 37 81 1.7 2.6 0.00 0.00 0.00 70 1016.1
20211207143004 37 82 1.7 3.5 0.00 0.00 0.00 69 1016.1
20211207142004 38 82 0.9 2.6 0.00 0.00 0.00 69 1015.8
20211207141004 38 82 0.0 0.9 0.00 0.00 0.00 67 1015.5
20211207140003 39 82 0.0 1.7 0.00 0.00 0.00 66 1015.5
20211207135003 40 113 1.7 4.3 0.00 0.00 0.00 66 1015.4
20211207134004 40 173 0.9 2.6 0.00 0.00 0.00 69 1015.2
20211207133004 40 173 1.7 2.6 0.00 0.00 0.00 69 1014.9
20211207132004 40 174 1.7 3.5 0.00 0.00 0.00 69 1014.7
20211207131004 40 156 1.7 2.6 0.00 0.00 0.00 69 1014.8
20211207130003 40 156 0.9 2.6 0.00 0.00 0.00 68 1014.8